Regional Weather Roundup
Issued by NWS Portland, ME

Current Version | Previous Version | Text Only | Print | Product List | Glossary Off
Versions: 1 2 3 4 5 6 7 8 9 10 11 12 13 14 15 16 17 18 19 20 21 22 23 24 25 26 27 28 29 30 31 32 33 34 35 36 37 38 39 40 41 42 43 44 45 46 47 48 49 50

065
ASUS41 KGYX 110510
RWRGYX
WEATHER ROUNDUP FOR MAINE AND NEW HAMPSHIRE
NATIONAL WEATHER SERVICE GRAY ME
1200 AM EST THU FEB 11 2016

MEZ002-005-006-010-012-015-018-020-021-024-026-027-029-110600-
MAINE

CITY           SKY/WX    TMP DP  RH WIND       PRES   REMARKS
PORTLAND       PTCLDY    29  22  75 W8        29.56S
SANFORD        PTCLDY    27  16  63 W8        29.57S
BAR HARBOR     CLOUDY    28  27  93 CALM      29.54F
WISCASSET      CLOUDY    19  16  88 CALM      29.56S
ROCKLAND       FOG       20  19  96 CALM      29.55S VSB 1/4
FRYEBURG       CLOUDY    28  13  53 MISG      29.55S
LEWISTONAUBURN PTCLDY    23  19  86 NW5       29.53S
AUGUSTA        MOCLDY    25  24  96 W6        29.54S FOG
WATERVILLE     FOG       27  27 100 SW3       29.51R VSB 1
BANGOR         CLOUDY    29  27  92 S3        29.54S
GREENVILLE       N/A     20  18  92 NW15G22   29.46R WCI   6
MILLINOCKET    LGT SNOW  22  18  85 NW3       29.54R FOG
HOULTON        CLOUDY    20  17  88 S3        29.50S
PRESQUE ISLE   FLURRIES  19  18  93 N5        29.52S
FRENCHVILLE    CLOUDY    14  10  84 NW8       29.49S
CARIBOU        LGT SNOW  19  16  88 N5        29.50S FOG
$$

NHZ002-005-008-009-011-012-014-110600-
NEW HAMPSHIRE

CITY           SKY/WX    TMP DP  RH WIND       PRES   REMARKS
PORTSMOUTH     PTCLDY    28  20  72 SW7       29.60R
ROCHESTER      CLEAR     27  15  61 VRB7      29.57S
NASHUA         CLEAR     27  19  74 VRB3      29.63R
MANCHESTER     CLEAR     28  20  71 W5        29.61R
CONCORD        CLEAR     27  15  61 W8        29.61R
LACONIA        MOCLDY    27  18  69 W9G18     29.59S
PLYMOUTH       MOCLDY    26  17  70 W6        29.60S
BERLIN         CLOUDY    22  13  68 VRB6      29.56R
WHITEFIELD     FLURRIES  21  14  74 W5        29.58S
JAFFREY        MOCLDY    21  16  81 S3        29.60S
KEENE          CLOUDY    21  18  86 CALM      29.64R
LEBANON        LGT SNOW  26  20  77 NW7       29.62R
MT WASHINGTON  SNOW       0   0 100 W33         N/A  VSB 0   WCI -27
$$

VTZ005-007-008-110600-
VERMONT

CITY           SKY/WX    TMP DP  RH WIND       PRES   REMARKS
ST JOHNSBURY     N/A     21  12  68 MISG      29.60S
MONTPELIER     FAIR      15  13  91 CALM      29.63S
BURLINGTON     CLOUDY    22  18  85 CALM      29.65S
$$

MAZ007-012-024-CTZ003-RIZ002-NYZ038-NYZ072-110600-
SOUTHERN NEW ENGLAND AND NY

CITY           SKY/WX    TMP DP  RH WIND       PRES   REMARKS
BOSTON         PTCLDY    31  20  63 W10G21    29.65R
WORCESTER      CLEAR     23  17  78 W9        29.61S
NANTUCKET      CLOUDY    36  28  73 W9        29.66S
PROVIDENCE     PTCLDY    30  19  63 W7        29.68S
HARTFORD       PTCLDY    26  15  63 NW9       29.68S
ALBANY         CLOUDY    27  13  55 W9        29.70S
NEW YORK CITY  CLOUDY    32  16  51 W17G26    29.74F
$$

ANZ081-ANZ082-ANZ150-NHZ014-MEZ023>029-110600-
COASTAL MARINE OBSERVATIONS

STATION/POSITION TIME  TEMP    WIND        PRES    WAVE
                       AIR SEA DIR/SP/G            HT/PER
                 (UTC) (F)     (DEG/KT/KT) (MB)    (FT/S)
MOUNT DESERT ROC 0500   34     230/ 17/ 20 1000.2F
MATINICUS ROCK   0400          280/ 12/ 14 1000.4S
ISLE OF SHOALS   0400   33     270/ 20/ 23 1001.2F
JEFFREYS LEDGE   0404      44                N/A     5/11
CASHES LEDGE BUO 0450   38 43  270/ 17/ 21 1000.1F   5/11
GEORGES BANK BUO 0450   40 47              1003.2R   9/12
$$

.............KEY..............
   WCI - WIND CHILL
   TC  - TEMPERATURE IN CELSIUS
   VSB - VISIBILITY IN MILES
   HX  - HEAT INDEX
   FAIR- INDICATES FEW OR NO CLOUDS BELOW 12,000 FT, WITH NO
         SIGNIFICANT WEATHER AND/OR OBSTRUCTIONS TO VISIBILITY.






USA.gov is the U.S. government's official web portal to all federal, state and local government web resources and services.